EHI
15 17 17 14 12 11 13 15 13 9 8 10 13 19 22 20 15 16 17 13 6 1 0 0 0 0 0 0 0 0 0 0 0 1 2 2 3 3
16 16 15 14 13 13 13 14 15 13 11 12 15 18 18 14 12 15 17 13 8 3 0 0 0 0 0 0 0 0 0 0 0 0 1 1 2 2
17 17 15 14 15 16 16 16 17 17 16 16 16 16 17 15 13 15 15 13 9 5 2 0 0 0 0 0 0 0 0 0 0 0 0 0 1 1
21 20 17 16 17 19 20 19 19 20 21 20 18 18 19 20 19 18 15 12 9 6 3 1 0 0 0 0 0 0 0 0 0 0 0 0 0 0
23 21 19 19 20 21 22 22 21 22 23 22 20 20 21 22 24 22 17 13 9 5 3 2 1 0 0 0 0 0 0 0 0 0 0 0 0 0
21 20 20 20 20 20 19 20 20 21 23 22 21 20 21 23 25 25 21 18 13 8 6 5 4 2 1 0 0 0 0 0 0 0 0 0 0 0
19 19 18 18 16 15 14 14 16 19 22 22 21 21 22 23 24 25 23 20 18 15 12 10 7 6 5 3 1 0 0 0 0 0 0 0 0 0
16 16 15 13 12 11 9 7 9 13 18 22 22 21 23 25 25 24 22 20 19 19 16 13 10 9 9 6 3 1 0 0 0 0 0 0 0 0
14 14 13 10 11 13 11 8 8 9 13 18 20 20 22 25 26 25 22 19 18 18 16 13 11 9 8 6 3 1 0 0 0 0 0 0 0 0
13 13 13 11 10 13 16 16 15 13 10 11 15 17 17 20 23 24 23 21 18 16 14 12 11 10 8 6 3 2 1 0 0 0 0 0 0 0
12 11 10 11 9 9 15 21 23 21 15 11 11 11 9 10 14 19 20 20 17 15 13 12 11 11 10 7 4 3 2 1 0 0 0 0 0 0
11 8 6 7 6 6 11 17 21 22 20 16 12 9 8 7 7 12 17 18 16 13 12 11 10 10 9 6 4 3 3 2 0 0 0 0 0 0
11 9 6 4 3 3 6 10 13 15 17 17 16 14 13 13 11 11 14 17 15 12 11 11 10 9 8 5 3 3 4 3 2 1 1 0 0 0
11 9 5 3 2 1 2 4 6 7 10 14 16 17 17 19 18 15 15 17 16 12 11 11 11 9 7 4 3 4 4 4 4 3 2 1 0 0
8 5 2 1 1 1 1 2 3 4 6 11 14 16 18 20 20 18 16 16 14 11 10 11 11 9 7 4 3 3 4 4 4 4 3 1 0 0
5 4 3 3 3 3 3 4 5 4 5 7 11 13 15 17 18 18 17 15 12 9 8 9 9 8 7 4 3 3 3 3 3 4 3 2 1 0
6 8 9 8 7 7 7 8 9 8 6 6 8 9 10 11 12 13 13 11 9 7 6 6 5 5 5 4 3 3 3 3 3 3 3 3 2 1
8 10 12 11 10 9 10 10 11 11 10 8 7 6 5 5 5 5 6 6 4 3 3 4 4 3 3 3 3 3 3 3 3 3 3 3 3 3
8 10 11 11 11 10 10 10 11 12 13 11 9 6 4 3 1 1 2 2 2 2 3 4 5 3 3 3 3 2 2 3 3 3 3 3 3 3
7 8 8 9 10 10 9 9 10 12 14 13 10 8 6 3 2 2 3 3 2 3 4 5 4 3 3 2 2 1 1 1 2 2 3 3 3 3
6 6 6 7 8 8 9 9 9 10 11 11 11 10 8 5 4 4 4 4 3 3 4 4 3 3 1 1 1 0 0 0 1 1 1 2 2 2
5 5 5 5 5 5 6 7 7 7 7 7 8 9 8 6 4 3 3 3 3 3 3 3 3 2 1 0 0 0 0 0 0 0 0 1 1 1
4 4 4 4 3 2 4 5 5 4 4 4 5 6 6 5 4 2 1 2 2 2 2 3 3 1 0 0 0 0 0 0 0 0 0 0 0 0
Wind_Speed
3 3 2 2 2 2 1 2 2 2 3 2 2 3 3 3 6 5 5 10 11 10 9 9 8 8 7 7 6 6 5 4 3 3 4 4 4 4
3 3 3 3 2 2 2 2 2 2 3 2 1 2 2 3 6 5 5 10 11 11 10 10 10 9 9 8 8 7 6 6 5 5 4 4 4 4
3 4 4 3 2 2 2 2 2 2 3 2 1 2 2 2 3 3 4 5 6 11 11 11 11 10 10 9 9 8 7 7 7 6 6 5 5 5
3 3 3 3 3 3 2 2 2 2 3 3 2 2 2 3 3 4 4 5 5 9 12 12 11 11 11 10 10 9 9 9 8 7 7 6 6 6
3 3 4 3 3 3 3 3 2 3 2 3 3 2 2 3 3 3 4 3 5 6 10 11 12 12 12 12 11 11 10 10 9 9 8 7 7 7
4 4 4 4 4 4 4 3 3 3 2 2 2 2 2 2 3 3 3 3 4 4 5 7 10 12 13 13 12 12 11 11 10 10 9 9 8 7
3 3 4 4 4 3 3 3 3 3 2 3 3 2 2 2 3 3 3 3 3 3 3 4 5 6 8 11 13 14 13 13 12 12 11 10 9 9
3 3 3 2 3 3 4 4 4 4 3 3 3 3 3 3 3 3 3 3 3 3 3 4 4 5 6 7 12 15 16 15 14 13 12 11 11 10
3 2 4 3 2 2 4 5 5 6 6 4 5 5 4 4 4 5 4 4 4 3 3 4 4 5 5 7 12 15 16 16 15 14 13 12 12 11
3 3 3 2 2 2 3 3 4 4 6 6 6 6 5 3 5 5 5 4 4 3 3 4 4 5 5 4 10 14 15 15 16 15 14 13 12 11
3 3 3 2 2 3 3 3 3 4 5 5 6 6 7 7 5 3 4 4 4 4 3 4 4 4 4 4 7 12 13 14 14 15 14 14 13 10
3 2 3 2 2 2 2 4 5 4 4 4 4 6 6 7 8 6 5 5 4 4 4 4 4 3 3 3 4 5 7 10 13 13 14 13 12 8
3 2 1 1 2 3 4 4 5 5 4 4 4 4 4 5 6 6 6 6 6 5 4 4 3 3 3 3 3 4 5 5 6 8 11 13 14 11
3 2 2 2 3 4 4 5 6 5 4 4 4 4 4 4 4 5 6 7 6 7 5 4 4 4 4 4 4 3 4 5 5 6 6 9 12 14
3 3 3 4 4 4 6 6 4 3 3 4 5 4 4 4 3 3 4 5 6 7 6 6 5 4 4 5 5 4 3 4 5 5 5 6 6 6
3 4 5 4 4 4 3 3 4 3 3 4 4 4 4 3 3 3 4 4 4 5 5 6 6 6 5 6 5 4 4 4 4 4 5 5 5 7
2 3 3 2 2 3 3 3 3 3 3 4 3 3 4 4 3 3 3 3 4 5 4 4 5 5 6 5 5 5 4 4 4 4 4 5 6 7
2 3 3 3 3 3 3 2 2 2 3 3 3 4 4 4 4 3 3 4 5 5 5 4 3 3 3 5 6 6 5 4 4 4 4 5 6 5
2 3 2 2 3 3 2 2 2 2 2 3 3 4 4 4 4 4 4 4 4 4 4 3 3 4 5 6 4 6 6 4 4 4 5 5 6 5
2 2 2 2 2 3 3 3 3 2 2 3 3 4 3 4 4 4 4 4 4 4 5 4 4 4 6 6 4 4 7 6 4 5 5 5 4 4
2 2 3 3 3 3 3 3 3 3 3 3 3 4 4 4 4 4 4 5 5 5 5 5 5 7 5 3 4 4 4 8 7 5 4 4 4 4
3 3 3 3 3 3 3 3 3 4 4 4 4 4 4 4 5 5 5 5 5 5 6 5 4 4 4 5 6 6 5 4 6 8 7 5 4 5
3 3 3 3 3 3 3 4 4 4 4 4 5 5 6 5 5 5 5 5 5 5 6 5 4 4 5 5 6 5 5 4 3 4 5 7 9 8
Wind_Direction
237 240 246 259 261 250 228 218 220 250 248 230 214 189 173 169 169 177 173 180 182 187 191 196 202 203 201 201 204 204 204 204 211 222 227 228 233 240
227 234 238 249 246 242 237 238 232 239 259 243 223 188 180 187 176 180 181 179 188 192 197 200 203 203 203 204 203 203 204 206 209 213 219 226 232 240
237 232 236 246 255 258 242 232 230 220 249 261 239 196 190 188 173 187 183 186 191 197 200 202 204 205 205 204 203 203 205 209 212 215 221 226 231 233
245 246 244 245 245 257 267 259 245 224 226 242 238 209 204 189 180 201 201 204 197 200 202 203 204 205 206 206 206 206 208 212 214 216 219 226 230 231
240 243 247 242 241 243 245 258 257 253 226 234 235 213 201 193 183 209 221 219 215 202 202 205 207 208 209 210 210 210 211 213 214 215 217 221 226 229
243 241 243 239 237 243 243 247 259 264 242 242 235 212 206 198 190 211 226 224 230 218 205 203 207 211 214 214 212 212 214 215 216 216 217 219 222 225
251 245 243 241 232 240 255 250 249 250 250 246 243 229 222 197 213 226 231 230 232 216 201 207 203 209 214 217 216 216 214 214 215 217 217 218 221 222
271 273 254 244 232 231 250 262 254 245 249 253 256 243 227 213 213 226 233 241 246 218 214 229 211 214 213 210 210 211 212 213 214 216 216 217 219 220
263 272 274 268 246 244 244 255 255 246 236 241 252 252 241 220 216 228 228 231 239 229 217 237 226 230 224 223 208 209 210 212 214 215 215 216 218 220
246 249 258 272 274 277 248 246 249 244 238 237 248 258 257 241 224 226 232 239 242 229 208 240 233 236 240 225 208 208 210 212 215 215 215 216 218 221
256 257 253 239 249 270 264 258 257 259 259 262 251 249 247 244 239 233 231 233 251 241 212 229 241 244 237 227 216 209 212 215 216 215 215 216 216 216
256 245 246 241 241 241 253 262 262 266 276 273 262 258 252 242 229 225 228 232 242 244 215 218 239 237 249 230 210 205 214 219 218 217 216 216 210 207
274 269 253 143 262 256 251 256 258 274 277 267 258 252 247 241 230 225 225 229 235 240 225 206 231 227 231 247 227 207 203 207 210 219 219 217 210 205
284 294 314 289 276 268 258 261 268 275 271 273 269 261 254 250 241 234 227 228 234 239 235 218 231 229 236 250 251 219 210 207 202 208 210 209 215 219
293 312 315 292 272 261 251 252 259 256 258 265 268 266 263 258 251 239 240 236 240 245 240 228 227 234 234 245 249 233 225 222 208 206 204 202 203 207
301 299 286 266 260 258 256 247 241 249 254 260 269 274 277 268 259 251 246 242 246 250 243 233 227 224 236 244 245 243 227 218 211 207 203 209 209 208
288 274 262 258 259 252 246 244 247 247 252 262 269 277 279 275 269 266 252 249 249 255 257 245 234 230 235 237 241 239 234 232 217 207 210 221 219 214
242 262 263 264 269 274 273 268 263 264 268 267 265 268 275 277 275 271 264 253 255 256 254 248 240 243 251 251 230 235 235 231 228 214 210 221 231 222
241 266 277 290 293 299 296 294 291 288 286 291 287 280 279 281 280 276 272 268 264 264 263 256 242 236 248 258 252 220 227 232 224 222 218 222 229 223
276 294 303 302 302 311 318 321 314 307 300 298 296 294 294 291 286 280 274 275 277 275 270 260 247 238 241 252 262 253 221 224 225 230 230 229 231 224
317 316 318 318 322 323 325 327 331 331 334 326 317 314 306 299 294 292 289 283 274 269 268 260 251 249 250 248 260 262 245 217 218 226 229 228 230 224
339 343 338 336 336 334 336 339 340 339 340 336 334 327 317 308 302 296 292 289 282 278 275 269 259 254 246 243 250 255 257 243 228 234 242 237 223 222
340 339 337 337 343 344 346 344 344 342 339 338 335 327 320 314 308 301 296 294 295 292 287 280 272 261 255 249 250 251 249 245 241 229 239 238 235 239